Regional Weather Roundup
Issued by NWS

Home | Current Version | Previous Version | Text Only | Print | Product List | Glossary Off
Versions: 1 2 3 4 5 6 7 8 9 10 11 12 13 14 15 16 17 18 19 20 21 22 23 24 25 26 27 28 29 30 31 32 33 34 35 36 37 38 39 40 41 42 43 44 45 46 47 48 49 50

000
ASUS43 KDTX 191201
RWRMI
MICHIGAN HOURLY REGIONAL WEATHER ROUNDUP
NATIONAL WEATHER SERVICE DETROIT/PONTIAC MI
800 AM EDT FRI SEP 19 2014

NOTE: "FAIR" INDICATES FEW OR NO CLOUDS BELOW 12,000 FEET WITH NO
SIGNIFICANT WEATHER AND/OR OBSTRUCTION TO VISIBILITY.

MIZ047>049-052>055-059>063-066>070-074>076-081>083-191300-
SOUTHEAST LOWER MICHIGAN

CITY           SKY/WX    TMP DP  RH WIND       PRES   REMARKS
ADRIAN         CLEAR     44  43  96 CALM      30.26R FOG
6HR MIN TEMP:  42; 6HR MAX TEMP:  51;

ALMA           CLEAR     38  37  99 CALM      30.26R FOG
ANN ARBOR      FOG       35  33  92 CALM      30.25R VSB 1/4
BAD AXE        PTCLDY    31  31 100 CALM      30.27S
6HR MIN TEMP:  31; 6HR MAX TEMP:  34;

CARO           CLEAR     33  33  99 CALM      30.26S
DETROIT CITY   CLEAR     45  40  82 N3        30.26R
6HR MIN TEMP:  44; 6HR MAX TEMP:  49;

DETROIT        PTCLDY    44  41  89 CALM      30.27R
6HR MIN TEMP:  43; 6HR MAX TEMP:  47;

FLINT          CLEAR     40  37  89 CALM      30.27R
6HR MIN TEMP:  37; 6HR MAX TEMP:  44;

GROSSE ILE     CLEAR     45  43  93 NW3       30.25R FOG
HILLSDALE      CLEAR     46  46  99 CALM      30.24R FOG
6HR MIN TEMP:  45; 6HR MAX TEMP:  50;

HOWELL         CLEAR     39  39  99 CALM      30.25R
6HR MIN TEMP:  38; 6HR MAX TEMP:  43;


CITY           SKY/WX    TMP DP  RH WIND       PRES   REMARKS
JACKSON        CLEAR     44  42  93 SE3       30.25R
6HR MIN TEMP:  42; 6HR MAX TEMP:  50;

LAMBERTVILLE   CLEAR     46  45  93 CALM      30.25R FOG
LANSING        CLEAR     42  40  92 E3        30.26R
6HR MIN TEMP:  40; 6HR MAX TEMP:  47;

LAPEER         FAIR      32  32  99 CALM      30.26S FOG
MASON          CLEAR     40  39  97 CALM      30.25R FOG
MONROE         CLEAR     43  43 100 CALM      30.25R FOG
MT. CLEMENS    PTCLDY    40  40 100 NW3       30.24R
6HR MIN TEMP:  38; 6HR MAX TEMP:  44;

PONTIAC        PTCLDY    40  38  93 CALM      30.25R
6HR MIN TEMP:  38; 6HR MAX TEMP:  43;

PORT HOPE        N/A     40  38  93 SW3       30.25S
6HR MIN TEMP:  38; 6HR MAX TEMP:  52;

PORT HURON     PTCLDY    34  34 100 NW3       30.27R FOG
TRI CITIES     CLEAR     41  38  89 CALM      30.27R
6HR MIN TEMP:  39; 6HR MAX TEMP:  43;

TROY           CLEAR     44  40  86 CALM      30.27S
SAGINAW HB     CLEAR     36  36 100 CALM      30.26S
$$
MIZ043>046-050>051-056>058-064>065-071>073-077>080-191300-
SOUTHWEST LOWER MICHIGAN

CITY           SKY/WX    TMP DP  RH WIND       PRES   REMARKS
BATTLE CREEK   CLEAR     48  45  89 SE5       30.24R FOG
6HR MIN TEMP:  48; 6HR MAX TEMP:  52;

BENTON HARBOR  CLEAR     51  50  96 SE8       30.19F FOG
6HR MIN TEMP:  49; 6HR MAX TEMP:  52;

BIG RAPIDS     CLEAR     41  41 100 CALM      30.24R
6HR MIN TEMP:  41; 6HR MAX TEMP:  44;

COLDWATER      CLEAR     47  46  97 SE3       30.24R FOG
6HR MIN TEMP:  47; 6HR MAX TEMP:  52;

FREMONT        FAIR      44  43  97 E7        30.22R FOG
HOLLAND        CLEAR     49  46  90 E5        30.22R FOG
6HR MIN TEMP:  47; 6HR MAX TEMP:  52;

GRAND RAPIDS   FOG       49  49 100 SE7       30.24R VSB 1/4
6HR MIN TEMP:  46; 6HR MAX TEMP:  49;

IONIA          FOG       42  41  99 E3        30.24R VSB 3/4
KALAMAZOO      CLOUDY    44  42  93 CALM      30.24R FOG
6HR MIN TEMP:  44; 6HR MAX TEMP:  50;

LUDINGTON      CLEAR     45  44  95 SE6       30.20S FOG
6HR MIN TEMP:  44; 6HR MAX TEMP:  49;

MARSHALL         N/A     43  43  99 CALM      30.24R FOG
MOUNT PLEASANT CLEAR     35  35  98 CALM      30.25S FOG
6HR MIN TEMP:  34; 6HR MAX TEMP:  40;

MUSKEGON       FOG       49  46  90 SE9       30.22R VSB 1/2
6HR MIN TEMP:  47; 6HR MAX TEMP:  51;

SOUTH HAVEN    CLEAR     51  51  97 SE5       30.20S FOG
$$
MIZ016>042-191300-
NORTHERN LOWER MICHIGAN

CITY           SKY/WX    TMP DP  RH WIND       PRES   REMARKS
ALPENA         CLOUDY    35  34  96 S3        30.26S
6HR MIN TEMP:  32; 6HR MAX TEMP:  36;

BEAVER ISLAND  CLOUDY    53  49  86 S9        30.18F
6HR MIN TEMP:  49; 6HR MAX TEMP:  53;

CADILLAC       CLEAR     43  40  91 CALM      30.23R
CHARLEVOIX     CLOUDY    48  45  87 SE8       30.25R
6HR MIN TEMP:  46; 6HR MAX TEMP:  48;

FRANKFORT      CLEAR     49  43  79 E5        30.19S
GAYLORD        CLEAR     44  40  85 S9        30.23R
6HR MIN TEMP:  42; 6HR MAX TEMP:  45;

GRAYLING       PTCLDY    43  41  95 CALM      30.25R
6HR MIN TEMP:  39; 6HR MAX TEMP:  46;

HARBOR SPRINGS CLOUDY    49  43  82 CALM      30.22R
HOUGHTON LAKE  CLEAR     40  38  93 CALM      30.25R
6HR MIN TEMP:  37; 6HR MAX TEMP:  46;

MANISTEE       CLEAR     43  39  87 E6        30.21R
OSCODA         CLEAR     33  32  98 CALM      30.27R
PELLSTON       CLOUDY    48  43  82 SE6       30.22R
6HR MIN TEMP:  42; 6HR MAX TEMP:  48;

TRAVERSE CITY  PTCLDY    47  39  74 S7        30.21R
6HR MIN TEMP:  47; 6HR MAX TEMP:  50;

$$
MIZ007>008-015-191300-
EASTERN UPPER MICHIGAN

CITY           SKY/WX    TMP DP  RH WIND       PRES   REMARKS
KINROSS        CLOUDY    48  45  87 S10       30.20S
6HR MIN TEMP:  37; 6HR MAX TEMP:  48;

MACKINAC ISLAN CLOUDY    48  43  81 S10G18    30.21S
6HR MIN TEMP:  46; 6HR MAX TEMP:  48;

NEWBERRY       CLOUDY    50  49  98 S12       30.15F FOG
S. S. MARIE    CLOUDY    48  41  76 SE8       30.21S
6HR MIN TEMP:  40; 6HR MAX TEMP:  48;

$$
MIZ004>006-011>014-085-191300-
CENTRAL UPPER MICHIGAN

CITY           SKY/WX    TMP DP  RH WIND       PRES   REMARKS
MANISTIQUE     CLOUDY    56  54  92 S15G23    30.14F
ESCANABA       CLOUDY    55  52  88 S9        30.12F
6HR MIN TEMP:  37; 6HR MAX TEMP:  55;

MENOMINEE      CLOUDY    55  54  94 S12       30.12F
6HR MIN TEMP:  43; 6HR MAX TEMP:  55;

SAWYER-GWINN   MOCLDY    46  45  93 S12       30.08F
$$
MIZ001>003-009>011-084-191300-
WESTERN UPPER MICHIGAN

CITY           SKY/WX    TMP DP  RH WIND       PRES   REMARKS
IRON MOUNTAIN  CLOUDY    48  46  93 S9        30.09S FOG
6HR MIN TEMP:  42; 6HR MAX TEMP:  49;

HOUGHTON       MOCLDY    50  47  89 S15G23    29.98F FOG
6HR MIN TEMP:  46; 6HR MAX TEMP:  50;

COPPER HARBOR    N/A     50  46  86 SW8G17    29.97F
6HR MIN TEMP:  49; 6HR MAX TEMP:  52;

IRONWOOD       CLOUDY    54  52  94 S10G18    29.95S
6HR MIN TEMP:  50; 6HR MAX TEMP:  54;

$$

ABBREVIATIONS USED IN REMARKS
   TC - TEMPERATURE IN CELSIUS
  WCI - WIND CHILL INDEX
   HX - HEAT INDEX
  VSB - VISIBILITY



USA.gov is the U.S. government's official web portal to all federal, state and local government web resources and services.